Time,TemperatureF,DewpointF,PressureIn,WindDirection,WindDirectionDegrees,WindSpeedMPH,WindSpeedGustMPH,Humidity,HourlyPrecipIn,Conditions,Clouds,dailyrainin,SoftwareType,DateUTC
2013-08-06 00:12:00,69.8,62.6,29.89,NNE,22,0.0,-999.0,78,-99.99,,,0.00,Acu-Link.com,2013-08-06 04:12:00,
2013-08-06 00:27:00,69.8,62.3,29.89,West,270,0.0,-999.0,77,-99.99,,,0.00,Acu-Link.com,2013-08-06 04:27:00,
2013-08-06 00:42:00,69.8,62.3,29.88,NNE,22,0.0,-999.0,77,-99.99,,,0.00,Acu-Link.com,2013-08-06 04:42:00,
2013-08-06 00:58:00,69.8,62.6,29.89,West,270,0.0,-999.0,78,-99.99,,,0.00,Acu-Link.com,2013-08-06 04:58:00,
2013-08-06 01:13:00,69.8,62.3,29.88,NE,45,0.0,-999.0,77,-99.99,,,0.00,Acu-Link.com,2013-08-06 05:13:00,
2013-08-06 01:28:00,69.8,62.3,29.88,NW,315,0.0,-999.0,77,-99.99,,,0.00,Acu-Link.com,2013-08-06 05:28:00,
2013-08-06 01:44:00,69.8,62.3,29.88,WSW,247,0.0,-999.0,77,-99.99,,,0.00,Acu-Link.com,2013-08-06 05:44:00,
2013-08-06 01:59:00,69.6,62.4,29.87,NE,45,0.0,-999.0,78,-99.99,,,0.00,Acu-Link.com,2013-08-06 05:59:00,
2013-08-06 02:14:00,69.4,62.2,29.86,SW,225,0.0,-999.0,78,-99.99,,,0.00,Acu-Link.com,2013-08-06 06:14:00,
2013-08-06 02:29:00,69.1,62.7,29.86,West,270,0.0,-999.0,80,-99.99,,,0.00,Acu-Link.com,2013-08-06 06:29:00,
2013-08-06 02:45:00,68.4,62.3,29.87,SSW,202,0.0,-999.0,81,-99.99,,,0.00,Acu-Link.com,2013-08-06 06:45:00,
2013-08-06 03:00:00,68.0,62.6,29.87,WSW,247,0.0,-999.0,83,-99.99,,,0.00,Acu-Link.com,2013-08-06 07:00:00,
2013-08-06 03:15:00,67.8,62.4,29.87,WNW,292,0.0,-999.0,83,-99.99,,,0.00,Acu-Link.com,2013-08-06 07:15:00,
2013-08-06 03:31:00,67.8,62.4,29.87,NNE,22,0.0,-999.0,83,-99.99,,,0.00,Acu-Link.com,2013-08-06 07:31:00,
2013-08-06 03:46:00,67.8,62.4,29.87,NNE,22,0.0,-999.0,83,-99.99,,,0.00,Acu-Link.com,2013-08-06 07:46:00,
2013-08-06 04:01:00,67.6,62.6,29.86,North,0,0.0,-999.0,84,-99.99,,,0.00,Acu-Link.com,2013-08-06 08:01:00,
2013-08-06 04:17:00,67.6,62.6,29.86,NE,45,0.0,-999.0,84,-99.99,,,0.00,Acu-Link.com,2013-08-06 08:17:00,
2013-08-06 04:32:00,67.5,62.5,29.85,ENE,67,0.0,-999.0,84,-99.99,,,0.00,Acu-Link.com,2013-08-06 08:32:00,
2013-08-06 04:47:00,67.5,62.1,29.84,ENE,67,0.0,-999.0,83,-99.99,,,0.00,Acu-Link.com,2013-08-06 08:47:00,
2013-08-06 05:02:00,67.5,62.5,29.84,WNW,292,0.0,-999.0,84,-99.99,,,0.00,Acu-Link.com,2013-08-06 09:02:00,
2013-08-06 05:17:00,67.6,62.9,29.84,SW,225,0.0,-999.0,85,-99.99,,,0.00,Acu-Link.com,2013-08-06 09:17:00,
2013-08-06 05:33:00,67.5,63.2,29.83,NW,315,0.0,-999.0,86,-99.99,,,0.00,Acu-Link.com,2013-08-06 09:33:00,
2013-08-06 05:48:00,67.3,63.3,29.84,West,270,0.0,-999.0,87,-99.99,,,0.00,Acu-Link.com,2013-08-06 09:48:00,
2013-08-06 06:03:00,67.1,63.1,29.85,SW,225,0.0,-999.0,87,-99.99,,,0.00,Acu-Link.com,2013-08-06 10:03:00,
2013-08-06 06:19:00,66.9,62.9,29.85,ESE,112,0.0,-999.0,87,-99.99,,,0.00,Acu-Link.com,2013-08-06 10:19:00,
2013-08-06 06:34:00,66.9,63.2,29.86,SW,225,0.0,-999.0,88,-99.99,,,0.00,Acu-Link.com,2013-08-06 10:34:00,
2013-08-06 06:49:00,66.9,62.9,29.88,West,270,0.0,-999.0,87,-99.99,,,0.00,Acu-Link.com,2013-08-06 10:49:00,
2013-08-06 07:05:00,66.9,62.9,29.87,SSW,202,0.0,-999.0,87,-99.99,,,0.00,Acu-Link.com,2013-08-06 11:05:00,
2013-08-06 07:20:00,67.1,63.1,29.88,SSW,202,0.0,-999.0,87,-99.99,,,0.00,Acu-Link.com,2013-08-06 11:20:00,
2013-08-06 07:35:00,67.1,63.1,29.88,NE,45,0.0,-999.0,87,-99.99,,,0.00,Acu-Link.com,2013-08-06 11:35:00,
2013-08-06 07:50:00,67.6,63.3,29.87,SSE,157,0.0,-999.0,86,-99.99,,,0.00,Acu-Link.com,2013-08-06 11:50:00,
2013-08-06 08:06:00,68.0,63.6,29.88,WSW,247,0.0,-999.0,86,-99.99,,,0.00,Acu-Link.com,2013-08-06 12:06:00,
2013-08-06 08:21:00,68.7,64.0,29.88,WNW,292,0.0,-999.0,85,-99.99,,,0.00,Acu-Link.com,2013-08-06 12:21:00,
2013-08-06 08:37:00,69.6,64.5,29.88,West,270,0.0,-999.0,84,-99.99,,,0.00,Acu-Link.com,2013-08-06 12:37:00,
2013-08-06 08:52:00,70.7,64.9,29.88,West,270,0.0,-999.0,82,-99.99,,,0.00,Acu-Link.com,2013-08-06 12:52:00,
2013-08-06 09:07:00,71.4,65.6,29.87,West,270,0.0,-999.0,82,-99.99,,,0.00,Acu-Link.com,2013-08-06 13:07:00,
2013-08-06 09:23:00,72.7,66.5,29.87,NW,315,0.0,-999.0,81,-99.99,,,0.00,Acu-Link.com,2013-08-06 13:23:00,
2013-08-06 09:38:00,73.4,66.1,29.87,NNE,22,2.2,-999.0,78,-99.99,,,0.00,Acu-Link.com,2013-08-06 13:38:00,
2013-08-06 09:53:00,72.1,65.6,29.87,NW,315,1.1,-999.0,80,-99.99,,,0.00,Acu-Link.com,2013-08-06 13:53:00,
2013-08-06 10:08:00,74.1,66.8,29.86,West,270,0.0,-999.0,78,-99.99,,,0.00,Acu-Link.com,2013-08-06 14:08:00,
2013-08-06 10:24:00,74.3,67.0,29.87,West,270,0.0,-999.0,78,-99.99,,,0.00,Acu-Link.com,2013-08-06 14:24:00,
2013-08-06 10:39:00,74.7,67.0,29.87,SSW,202,1.7,-999.0,77,-99.99,,,0.00,Acu-Link.com,2013-08-06 14:39:00,
2013-08-06 10:54:00,74.7,67.4,29.88,SW,225,2.7,-999.0,78,-99.99,,,0.00,Acu-Link.com,2013-08-06 14:54:00,
2013-08-06 11:09:00,74.7,67.7,29.88,NE,45,2.7,-999.0,79,-99.99,,,0.00,Acu-Link.com,2013-08-06 15:09:00,
2013-08-06 11:25:00,75.0,68.4,29.88,West,270,1.1,-999.0,80,-99.99,,,0.00,Acu-Link.com,2013-08-06 15:25:00,
2013-08-06 11:40:00,74.7,68.1,29.88,South,180,1.7,-999.0,80,-99.99,,,0.00,Acu-Link.com,2013-08-06 15:40:00,
2013-08-06 11:55:00,75.0,68.8,29.88,SSW,202,0.0,-999.0,81,-99.99,,,0.00,Acu-Link.com,2013-08-06 15:55:00,
2013-08-06 12:11:00,73.8,68.3,29.88,WSW,247,2.2,-999.0,83,-99.99,,,0.00,Acu-Link.com,2013-08-06 16:11:00,
2013-08-06 12:26:00,74.5,68.6,29.88,NNE,22,0.0,-999.0,82,-99.99,,,0.00,Acu-Link.com,2013-08-06 16:26:00,
2013-08-06 12:41:00,75.2,69.3,29.87,WSW,247,1.7,-999.0,82,-99.99,,,0.00,Acu-Link.com,2013-08-06 16:41:00,
2013-08-06 12:57:00,75.4,69.2,29.87,West,270,0.0,-999.0,81,-99.99,,,0.00,Acu-Link.com,2013-08-06 16:57:00,
2013-08-06 13:12:00,77.0,70.0,29.87,SSW,202,1.1,-999.0,79,-99.99,,,0.00,Acu-Link.com,2013-08-06 17:12:00,
2013-08-06 13:27:00,77.4,70.7,29.86,SW,225,2.7,-999.0,80,-99.99,,,0.00,Acu-Link.com,2013-08-06 17:27:00,
2013-08-06 13:42:00,77.2,70.5,29.86,WSW,247,1.7,-999.0,80,-99.99,,,0.00,Acu-Link.com,2013-08-06 17:42:00,
2013-08-06 13:58:00,76.8,70.5,29.86,NNE,22,2.7,-999.0,81,-99.99,,,0.00,Acu-Link.com,2013-08-06 17:58:00,
2013-08-06 14:13:00,78.6,71.1,29.87,West,270,0.0,-999.0,78,-99.99,,,0.00,Acu-Link.com,2013-08-06 18:13:00,
2013-08-06 14:28:00,77.5,70.8,29.87,WSW,247,0.0,-999.0,80,-99.99,,,0.00,Acu-Link.com,2013-08-06 18:28:00,
2013-08-06 14:43:00,78.4,71.0,29.86,West,270,0.0,-999.0,78,-99.99,,,0.00,Acu-Link.com,2013-08-06 18:43:00,
2013-08-06 14:59:00,77.0,71.4,29.86,NE,45,0.0,-999.0,83,-99.99,,,0.00,Acu-Link.com,2013-08-06 18:59:00,
2013-08-06 15:14:00,77.4,71.1,29.86,WSW,247,0.0,-999.0,81,-99.99,,,0.00,Acu-Link.com,2013-08-06 19:14:00,
2013-08-06 15:29:00,77.4,71.8,29.85,West,270,0.0,-999.0,83,-99.99,,,0.00,Acu-Link.com,2013-08-06 19:29:00,
2013-08-06 15:44:00,80.1,72.2,29.85,SE,135,0.0,-999.0,77,-99.99,,,0.00,Acu-Link.com,2013-08-06 19:44:00,
2013-08-06 15:59:00,81.5,72.0,29.84,NNW,337,1.7,-999.0,73,-99.99,,,0.00,Acu-Link.com,2013-08-06 19:59:00,
2013-08-06 16:15:00,81.3,73.0,29.84,WSW,247,2.2,-999.0,76,-99.99,,,0.00,Acu-Link.com,2013-08-06 20:15:00,
2013-08-06 16:30:00,79.5,72.4,29.84,SW,225,2.2,-999.0,79,-99.99,,,0.00,Acu-Link.com,2013-08-06 20:30:00,
2013-08-06 16:45:00,78.8,71.7,29.84,West,270,0.0,-999.0,79,-99.99,,,0.00,Acu-Link.com,2013-08-06 20:45:00,
2013-08-06 17:01:00,80.8,72.9,29.85,WSW,247,0.0,-999.0,77,-99.99,,,0.00,Acu-Link.com,2013-08-06 21:01:00,
2013-08-06 17:16:00,81.1,73.2,29.84,WSW,247,0.0,-999.0,77,-99.99,,,0.00,Acu-Link.com,2013-08-06 21:16:00,
2013-08-06 17:31:00,79.3,72.6,29.84,WSW,247,1.7,-999.0,80,-99.99,,,0.00,Acu-Link.com,2013-08-06 21:31:00,
2013-08-06 17:47:00,80.8,72.9,29.84,SSW,202,1.7,-999.0,77,-99.99,,,0.00,Acu-Link.com,2013-08-06 21:47:00,
2013-08-06 18:02:00,81.7,73.4,29.84,SSW,202,0.0,-999.0,76,-99.99,,,0.00,Acu-Link.com,2013-08-06 22:02:00,
2013-08-06 18:17:00,79.2,72.9,29.84,West,270,1.7,-999.0,81,-99.99,,,0.00,Acu-Link.com,2013-08-06 22:17:00,
2013-08-06 18:32:00,79.9,73.2,29.84,West,270,0.0,-999.0,80,-99.99,,,0.00,Acu-Link.com,2013-08-06 22:32:00,
2013-08-06 18:48:00,81.0,73.1,29.82,SW,225,1.7,-999.0,77,-99.99,,,0.00,Acu-Link.com,2013-08-06 22:48:00,
2013-08-06 19:03:00,81.0,73.5,29.84,West,270,0.0,-999.0,78,-99.99,,,0.00,Acu-Link.com,2013-08-06 23:03:00,
2013-08-06 19:18:00,80.8,73.3,29.84,SW,225,0.0,-999.0,78,-99.99,,,0.00,Acu-Link.com,2013-08-06 23:18:00,
2013-08-06 19:34:00,80.1,73.4,29.84,SSW,202,0.0,-999.0,80,-99.99,,,0.00,Acu-Link.com,2013-08-06 23:34:00,
2013-08-06 19:49:00,79.7,73.3,29.83,West,270,0.0,-999.0,81,-99.99,,,0.00,Acu-Link.com,2013-08-06 23:49:00,
2013-08-06 20:04:00,79.2,73.2,29.82,West,270,0.0,-999.0,82,-99.99,,,0.00,Acu-Link.com,2013-08-07 00:04:00,
2013-08-06 20:20:00,78.3,72.7,29.84,West,270,0.0,-999.0,83,-99.99,,,0.00,Acu-Link.com,2013-08-07 00:20:00,
2013-08-06 20:35:00,77.7,72.8,29.83,West,270,0.0,-999.0,85,-99.99,,,0.00,Acu-Link.com,2013-08-07 00:35:00,
2013-08-06 20:50:00,76.8,72.3,29.83,South,180,0.0,-999.0,86,-99.99,,,0.00,Acu-Link.com,2013-08-07 00:50:00,
2013-08-06 21:05:00,76.1,72.3,29.83,SSE,157,0.0,-999.0,88,-99.99,,,0.00,Acu-Link.com,2013-08-07 01:05:00,
2013-08-06 21:21:00,75.4,72.3,29.83,WSW,247,0.0,-999.0,90,-99.99,,,0.00,Acu-Link.com,2013-08-07 01:21:00,
2013-08-06 21:36:00,74.5,72.0,29.83,East,90,0.0,-999.0,92,-99.99,,,0.00,Acu-Link.com,2013-08-07 01:36:00,
2013-08-06 21:53:00,73.8,72.0,29.83,NNW,337,0.0,-999.0,94,-99.99,,,0.00,Acu-Link.com,2013-08-07 01:53:00,
2013-08-06 22:08:00,73.8,72.3,29.85,NNW,337,0.0,-999.0,95,-99.99,,,0.00,Acu-Link.com,2013-08-07 02:08:00,
2013-08-06 22:23:00,73.8,72.0,29.84,WNW,292,0.0,-999.0,94,-99.99,,,0.00,Acu-Link.com,2013-08-07 02:23:00,
2013-08-06 22:42:00,73.8,72.3,29.84,WNW,292,0.0,-999.0,95,-99.99,,,0.00,Acu-Link.com,2013-08-07 02:42:00,
2013-08-06 22:58:00,73.8,72.3,29.85,WNW,292,0.0,-999.0,95,-99.99,,,0.00,Acu-Link.com,2013-08-07 02:58:00,
2013-08-06 23:14:00,73.2,71.7,29.85,NNE,22,0.0,-999.0,95,-99.99,,,0.00,Acu-Link.com,2013-08-07 03:14:00,
2013-08-06 23:29:00,72.9,71.7,29.85,NNE,22,0.0,-999.0,96,-99.99,,,0.00,Acu-Link.com,2013-08-07 03:29:00,
2013-08-06 23:44:00,72.3,71.4,29.85,NNE,22,0.0,-999.0,97,-99.99,,,0.00,Acu-Link.com,2013-08-07 03:44:00,
2013-08-06 23:59:00,72.0,71.7,29.85,NNE,22,0.0,-999.0,99,-99.99,,,0.00,Acu-Link.com,2013-08-07 03:59:00,